Location: Most
(50.5133°N, 13.6207°E)
Time: 13:03:15
(UTC+01:00)

UNHA 3 R/B - Pass Details

Date: 26 September 2020
Orbit: 479 x 556 km, 97.4° (Epoch: 27 October)

Event Time Altitude Azimuth Distance (km) Brightness Sun altitude
Rises 05:57:39 0° 7° (N) 2,632 9.0 -10.4°
Reaches altitude 10° 05:59:48 10° 1° (N) 1,754 8.0 -10.1°
Maximum altitude 06:03:23 42° 290° (WNW) 761 5.6 -9.5°
Drops below altitude 10° 06:07:01 10° 219° (SW) 1,783 7.5 -9.0°
Enters shadow 06:09:10 - 212° (SSW) 2,657 8.4 -8.6°
